Location: *
(51.1248°S, 108.4023°W)
Time: 01:42:17
(UTC+00:00)

Cosmos 1544 - Pass Details

Date: 28 October 2021
Orbit: 467 x 486 km, 82.5° (Epoch: 01 December)

Event Time Altitude Azimuth Distance (km) Brightness Sun altitude
Exits shadow 08:12:04 59° 180° (S) 564 3.5 -23.6°
Drops below altitude 10° 08:15:09 10° 171° (S) 1,686 6.9 -23.4°
Sets 08:17:17 0° 170° (S) 2,578 8.1 -23.3°
